This is the latest recevied weather packets stored in our database for station/object KA9CBS. If no packets are shown the sender has not sent any weather packets the latest 10 day(s).
| Time | Temp. | Humidity | Pressure | Rain* | Wind** | Luminosity | Snow |
|---|---|---|---|---|---|---|---|
| 1787810303 | 22.22° C | 93% | 1016.8 hPa | 0 mm | - | 0 W/m² | - |
| 1787809999 | 22.22° C | 93% | 1016.9 hPa | 0 mm | - | 0 W/m² | - |
| 1787809693 | 22.22° C | 93% | 1016.8 hPa | 0 mm | - | 0 W/m² | - |
| 1787809389 | 22.78° C | 93% | 1016.8 hPa | 0 mm | - | 0 W/m² | - |
| 1787809085 | 22.78° C | 92% | 1017 hPa | 0 mm | - | 0 W/m² | - |
| 1787808781 | 22.78° C | 91% | 1016.8 hPa | 0 mm | - | 0 W/m² | - |
| 1787808479 | 22.78° C | 91% | 1017 hPa | 0 mm | - | 0 W/m² | - |
| 1787808174 | 22.78° C | 90% | 1016.8 hPa | 0 mm | - | 0 W/m² | - |
| 1787807872 | 22.78° C | 90% | 1016.6 hPa | 0 mm | - | 0 W/m² | - |
| 1787807568 | 22.78° C | 90% | 1016.8 hPa | 0 mm | - | 0 W/m² | - |
| 1787807264 | 22.78° C | 89% | 1016.7 hPa | 0 mm | - | 0 W/m² | - |
| 1787806959 | 23.33° C | 89% | 1016.7 hPa | 0 mm | - | 0 W/m² | - |
| 1787806657 | 23.33° C | 88% | 1016.7 hPa | 0 mm | - | 0 W/m² | - |
| 1787806353 | 22.78° C | 88% | 1016.7 hPa | 0 mm | - | 0 W/m² | - |
| 1787806051 | 22.78° C | 89% | 1016.6 hPa | 0 mm | - | 0 W/m² | - |
| 1787805747 | 22.78° C | 89% | 1016.4 hPa | 0 mm | - | 0 W/m² | - |
| 1787805443 | 22.78° C | 90% | 1016.4 hPa | 0 mm | - | 0 W/m² | - |
| 1787805138 | 23.33° C | 89% | 1016.6 hPa | 0 mm | - | 0 W/m² | - |
| 1787804836 | 23.33° C | 88% | 1016.6 hPa | 0 mm | - | 0 W/m² | - |
| 1787804533 | 23.33° C | 88% | 1016.5 hPa | 0 mm | - | 0 W/m² | - |
| 1787804232 | 23.89° C | 86% | 1016.3 hPa | 0 mm | - | 0 W/m² | - |
| 1787803927 | 24.44° C | 83% | 1016.2 hPa | 0 mm | - | 0 W/m² | - |
| 1787803621 | 25° C | 81% | 1016.3 hPa | 0 mm | - | 0 W/m² | - |
| 1787803314 | 25° C | 80% | 1016.2 hPa | 0 mm | - | 0 W/m² | - |
| 1787803010 | 25° C | 79% | 1016.1 hPa | 0 mm | - | 0 W/m² | - |
* Rain latest hour (hover to see other rain measurements)
** Current wind speed in m/s (hover to see current wind gust speed)